Location: *
(32.3300°N, 34.8500°E)
Time: 17:20:26
(UTC+00:00)

Cosmos 2366 rocket - Pass Details

Date: 22 October 2019
Orbit: 955 x 998 km, 82.9° (Epoch: 13 November)

Event Time Altitude Azimuth Distance (km) Brightness Sun altitude
Rises 03:01:32 0° 187° (S) 3,694 7.0 -10.8°
Reaches altitude 10° 03:04:02 10° 188° (S) 2,751 6.4 -10.2°
Maximum altitude 03:10:22 80° 276° (W) 1,015 4.0 -8.9°
Drops below altitude 10° 03:16:45 10° 3° (N) 2,768 6.3 -7.6°
Sets 03:19:17 0° 5° (N) 3,718 7.0 -7.0°
